Location: Czekanka
(50.4925°N, 19.2643°E)
Time: 12:41:19
(UTC+00:00)

ADEOS II - Pass Details

Date: 15 June 2024
Orbit: 796 x 798 km, 98.7° (Epoch: 15 July)

Event Time Altitude Azimuth Distance (km) Brightness Sun altitude
Rises 00:37:51 0° 19° (NNE) 3,314 7.3 -12.0°
Reaches altitude 10° 00:40:19 10° 26° (NNE) 2,380 6.1 -11.8°
Maximum altitude 00:45:20 44° 98° (E) 1,092 3.0 -11.4°
Drops below altitude 10° 00:50:18 10° 171° (S) 2,363 4.1 -11.0°
Enters shadow 00:50:49 - 173° (S) 2,552 4.2 -11.0°
